| time (UTC) | temp C | wind direction | speed KPH | gust KPH | rain 1hr cm | rain 24hr cm | rain mn cm | humidity % | barometer mb |
| 20260510131720 | 15 | 209 | 0.0 | 0.0 | 0.00 | 1.07 | 0.00 | 85 | 1014.1 |
| 20260510131148 | 15 | 245 | 0.0 | 0.0 | 0.00 | 1.09 | 0.00 | 85 | 1014.0 |
| 20260510130618 | 14 | 247 | 0.0 | 0.0 | 0.00 | 1.09 | 0.00 | 89 | 1014.0 |
| 20260510130047 | 13 | 163 | 0.0 | 0.0 | 0.00 | 1.09 | 0.00 | 90 | 1013.7 |
| 20260510125517 | 13 | 254 | 0.0 | 0.0 | 0.00 | 1.12 | 0.00 | 88 | 1013.8 |
| 20260510124947 | 13 | 255 | 0.0 | 0.0 | 0.00 | 1.12 | 0.00 | 90 | 1013.8 |
| 20260510124418 | 13 | 255 | 0.0 | 0.0 | 0.00 | 1.12 | 0.00 | 90 | 1013.7 |
| 20260510124117 | 13 | 255 | 0.0 | 0.0 | 0.00 | 1.12 | 0.00 | 90 | 1013.7 |
| 20260510123316 | 13 | 255 | 0.0 | 0.0 | 0.00 | 1.12 | 0.00 | 90 | 1013.7 |
| 20260510123017 | 12 | 254 | 0.0 | 0.0 | 0.00 | 1.12 | 0.00 | 91 | 1013.6 |
| 20260510122214 | 12 | 255 | 0.0 | 0.0 | 0.00 | 1.12 | 0.00 | 92 | 1013.5 |
| 20260510121644 | 12 | 255 | 0.0 | 0.0 | 0.00 | 1.12 | 0.00 | 92 | 1013.5 |
| 20260510121112 | 12 | 254 | 0.0 | 0.0 | 0.00 | 1.12 | 0.00 | 92 | 1013.3 |
| 20260510120541 | 11 | 254 | 0.0 | 0.0 | 0.00 | 1.12 | 0.00 | 92 | 1013.1 |
| 20260510120011 | 11 | 254 | 0.0 | 0.0 | 0.00 | 1.14 | 0.00 | 92 | 1013.0 |
| 20260510115441 | 11 | 253 | 0.0 | 0.0 | 0.00 | 1.14 | 0.00 | 92 | 1012.8 |
| 20260510114910 | 10 | 178 | 0.0 | 0.0 | 0.00 | 1.14 | 0.00 | 92 | 1012.6 |
| 20260510114341 | 10 | 177 | 0.0 | 0.0 | 0.00 | 1.14 | 0.00 | 92 | 1012.6 |
| 20260510114042 | 10 | 177 | 0.0 | 0.0 | 0.00 | 1.14 | 0.00 | 92 | 1012.5 |
| 20260510113240 | 9 | 178 | 0.0 | 0.0 | 0.00 | 1.14 | 0.00 | 92 | 1012.4 |
| 20260510112710 | 9 | 177 | 0.0 | 0.0 | 0.00 | 1.14 | 0.00 | 92 | 1012.4 |
| 20260510112412 | 9 | 177 | 0.0 | 0.0 | 0.00 | 1.14 | 0.00 | 92 | 1012.3 |
| 20260510111610 | 9 | 177 | 0.0 | 0.0 | 0.00 | 1.14 | 0.00 | 92 | 1012.2 |
| 20260510111039 | 8 | 177 | 0.0 | 0.0 | 0.00 | 1.14 | 0.00 | 92 | 1012.1 |
| 20260510110509 | 8 | 178 | 0.0 | 0.0 | 0.00 | 1.14 | 0.00 | 92 | 1011.9 |
| 20260510105939 | 8 | 177 | 0.0 | 0.0 | 0.00 | 1.14 | 0.00 | 92 | 1011.9 |
| 20260510105407 | 8 | 177 | 0.0 | 0.0 | 0.00 | 1.14 | 0.00 | 92 | 1011.8 |
| 20260510104837 | 8 | 178 | 0.0 | 0.0 | 0.00 | 1.17 | 0.00 | 92 | 1011.8 |
| 20260510104308 | 8 | 178 | 0.0 | 0.0 | 0.00 | 1.17 | 0.00 | 92 | 1011.9 |
| 20260510103736 | 8 | 177 | 0.0 | 0.0 | 0.00 | 1.17 | 0.00 | 92 | 1011.8 |
| 20260510103437 | 8 | 177 | 0.0 | 0.0 | 0.00 | 1.17 | 0.00 | 92 | 1011.9 |
| 20260510102635 | 8 | 177 | 0.0 | 0.0 | 0.00 | 1.17 | 0.00 | 92 | 1011.9 |
| 20260510102334 | 8 | 178 | 0.0 | 0.0 | 0.00 | 1.17 | 0.00 | 92 | 1011.8 |
| 20260510101533 | 8 | 177 | 0.0 | 0.0 | 0.00 | 1.17 | 0.00 | 92 | 1011.8 |
| 20260510101232 | 8 | 178 | 0.0 | 0.0 | 0.00 | 1.17 | 0.00 | 92 | 1011.7 |
| 20260510100432 | 8 | 178 | 0.0 | 0.0 | 0.00 | 1.17 | 0.00 | 92 | 1011.5 |
| 20260510100131 | 8 | 178 | 0.0 | 0.0 | 0.00 | 1.17 | 0.00 | 92 | 1011.5 |
| 20260510095329 | 8 | 177 | 0.0 | 0.0 | 0.00 | 1.17 | 0.00 | 91 | 1011.5 |
| 20260510094759 | 8 | 178 | 0.0 | 0.0 | 0.00 | 1.17 | 0.00 | 91 | 1011.5 |
| 20260510094229 | 8 | 178 | 0.0 | 0.0 | 0.00 | 1.17 | 0.00 | 91 | 1011.4 |
| 20260510093929 | 8 | 178 | 0.0 | 0.0 | 0.00 | 1.17 | 0.00 | 92 | 1011.6 |
| 20260510093125 | 8 | 178 | 0.0 | 0.0 | 0.00 | 1.17 | 0.00 | 92 | 1011.4 |
| 20260510092555 | 8 | 178 | 0.0 | 0.0 | 0.00 | 1.17 | 0.00 | 92 | 1011.1 |
| 20260510092024 | 9 | 178 | 0.0 | 0.0 | 0.00 | 1.17 | 0.00 | 92 | 1011.1 |
| 20260510091455 | 9 | 177 | 0.0 | 0.0 | 0.00 | 1.17 | 0.00 | 92 | 1010.9 |
| 20260510091156 | 9 | 178 | 0.0 | 0.0 | 0.00 | 1.17 | 0.00 | 92 | 1011.0 |
| 20260510090626 | 9 | 177 | 0.0 | 0.0 | 0.00 | 1.17 | 0.00 | 92 | 1011.1 |
| 20260510085825 | 9 | 178 | 0.0 | 0.0 | 0.00 | 1.17 | 0.00 | 92 | 1011.0 |
| 20260510085254 | 9 | 178 | 0.0 | 0.0 | 0.00 | 1.19 | 0.00 | 92 | 1010.7 |
| 20260510084724 | 9 | 177 | 0.0 | 0.0 | 0.00 | 1.19 | 0.00 | 92 | 1010.8 |
| 20260510084154 | 9 | 177 | 0.0 | 0.0 | 0.00 | 1.22 | 0.00 | 92 | 1010.8 |
| 20260510083623 | 9 | 178 | 0.0 | 0.0 | 0.00 | 1.22 | 0.00 | 92 | 1010.7 |
| 20260510083052 | 9 | 191 | 0.0 | 0.0 | 0.00 | 1.22 | 0.00 | 92 | 1010.8 |
| 20260510082522 | 9 | 190 | 0.0 | 0.0 | 0.00 | 1.22 | 0.00 | 91 | 1011.0 |
| 20260510081952 | 9 | 191 | 0.0 | 0.0 | 0.00 | 1.22 | 0.00 | 92 | 1011.0 |
| 20260510081422 | 9 | 190 | 0.0 | 0.0 | 0.00 | 1.24 | 0.00 | 91 | 1010.9 |
| 20260510080852 | 9 | 191 | 0.0 | 0.0 | 0.00 | 1.24 | 0.00 | 91 | 1010.9 |
| 20260510080552 | 9 | 191 | 0.0 | 0.0 | 0.00 | 1.24 | 0.00 | 91 | 1011.0 |
| 20260510080021 | 9 | 190 | 0.0 | 0.0 | 0.00 | 1.24 | 0.00 | 91 | 1010.9 |
| 20260510075219 | 9 | 190 | 0.0 | 0.0 | 0.00 | 1.24 | 0.00 | 91 | 1011.0 |
| 20260510074650 | 9 | 191 | 0.0 | 0.0 | 0.00 | 1.27 | 0.00 | 91 | 1011.1 |
| 20260510074117 | 9 | 190 | 0.0 | 0.0 | 0.00 | 1.27 | 0.00 | 91 | 1011.4 |
| 20260510073817 | 9 | 269 | 0.0 | 0.0 | 0.00 | 1.27 | 0.00 | 91 | 1011.4 |
| 20260510073016 | 9 | 269 | 0.0 | 0.0 | 0.00 | 1.27 | 0.00 | 91 | 1011.5 |
| 20260510072446 | 9 | 269 | 0.0 | 0.0 | 0.00 | 1.27 | 0.00 | 91 | 1011.4 |
| 20260510071915 | 9 | 269 | 0.0 | 0.0 | 0.00 | 1.30 | 0.00 | 91 | 1011.5 |
| 20260510071345 | 9 | 269 | 0.0 | 0.0 | 0.00 | 1.30 | 0.00 | 92 | 1011.6 |
| 20260510070815 | 9 | 269 | 0.0 | 0.0 | 0.00 | 1.32 | 0.00 | 92 | 1011.7 |
| 20260510070245 | 9 | 269 | 0.0 | 0.0 | 0.00 | 1.32 | 0.00 | 92 | 1011.7 |
| 20260510065714 | 9 | 269 | 0.0 | 0.0 | 0.00 | 1.35 | 0.00 | 92 | 1011.6 |
| 20260510065145 | 9 | 269 | 0.0 | 0.0 | 0.00 | 1.37 | 0.00 | 92 | 1011.8 |
| 20260510064613 | 9 | 269 | 0.0 | 0.0 | 0.00 | 1.37 | 0.00 | 92 | 1011.9 |
| 20260510064042 | 9 | 269 | 0.0 | 0.0 | 0.00 | 1.40 | 0.00 | 91 | 1011.8 |
| 20260510063509 | 9 | 269 | 0.0 | 0.0 | 0.00 | 1.42 | 0.00 | 92 | 1011.9 |
| 20260510063212 | 9 | 269 | 0.0 | 0.0 | 0.00 | 1.45 | 0.00 | 92 | 1012.1 |
| 20260510062410 | 9 | 269 | 0.0 | 0.0 | 0.00 | 1.50 | 0.00 | 92 | 1012.2 |
| 20260510061840 | 9 | 269 | 0.0 | 0.0 | 0.00 | 1.52 | 0.00 | 92 | 1012.2 |
| 20260510061310 | 9 | 269 | 0.0 | 0.0 | 0.00 | 1.52 | 0.00 | 92 | 1011.8 |
| 20260510061009 | 9 | 269 | 0.0 | 0.0 | 0.00 | 1.52 | 0.00 | 92 | 1011.9 |
| 20260510060209 | 9 | 270 | 0.0 | 0.0 | 0.00 | 1.52 | 0.00 | 92 | 1011.9 |
| 20260510055639 | 9 | 158 | 0.0 | 0.0 | 0.00 | 1.52 | 0.00 | 92 | 1011.8 |
| 20260510055108 | 9 | 157 | 0.0 | 0.0 | 0.00 | 1.52 | 0.00 | 92 | 1011.4 |
| 20260510054539 | 9 | 190 | 0.0 | 0.0 | 0.00 | 1.52 | 0.00 | 92 | 1011.4 |
| 20260510054008 | 9 | 190 | 0.0 | 0.0 | 0.00 | 1.52 | 0.00 | 92 | 1011.5 |
| 20260510053437 | 9 | 173 | 0.0 | 0.0 | 0.00 | 1.52 | 0.00 | 92 | 1011.4 |
| 20260510052907 | 9 | 171 | 0.0 | 0.0 | 0.00 | 1.52 | 0.00 | 92 | 1011.6 |
| 20260510052607 | 9 | 170 | 0.0 | 0.0 | 0.00 | 1.52 | 0.00 | 92 | 1011.5 |
| 20260510051806 | 9 | 169 | 0.0 | 0.0 | 0.00 | 1.52 | 0.00 | 92 | 1011.4 |
| 20260510051236 | 9 | 169 | 0.0 | 0.0 | 0.00 | 1.52 | 0.00 | 91 | 1011.5 |
| 20260510050706 | 9 | 169 | 0.0 | 0.0 | 0.00 | 1.52 | 0.00 | 91 | 1011.6 |
| 20260510050136 | 9 | 180 | 0.0 | 0.0 | 0.00 | 1.52 | 0.00 | 91 | 1011.7 |
| 20260510045606 | 9 | 180 | 0.0 | 0.0 | 0.00 | 1.52 | 0.00 | 91 | 1011.6 |
| 20260510045306 | 9 | 180 | 0.0 | 0.0 | 0.00 | 1.52 | 0.00 | 91 | 1011.6 |
| 20260510044505 | 9 | 180 | 0.0 | 0.0 | 0.00 | 1.52 | 0.00 | 91 | 1011.5 |
| 20260510043934 | 9 | 180 | 0.0 | 0.0 | 0.00 | 1.52 | 0.00 | 91 | 1011.4 |
| 20260510043404 | 9 | 180 | 0.0 | 0.0 | 0.00 | 1.52 | 0.00 | 91 | 1011.2 |
| 20260510042833 | 9 | 180 | 0.0 | 0.0 | 0.00 | 1.52 | 0.00 | 91 | 1011.2 |
| 20260510042306 | 9 | 180 | 0.0 | 0.0 | 0.00 | 1.52 | 0.00 | 91 | 1011.1 |
| 20260510041733 | 9 | 180 | 0.0 | 0.0 | 0.00 | 1.52 | 0.00 | 91 | 1011.0 |
| 20260510041436 | 9 | 180 | 0.0 | 0.0 | 0.00 | 1.52 | 0.00 | 91 | 1011.0 |
| 20260510040633 | 9 | 180 | 0.0 | 0.0 | 0.00 | 1.52 | 0.00 | 91 | 1011.0 |
| 20260510040332 | 9 | 180 | 0.0 | 0.0 | 0.00 | 1.52 | 0.00 | 91 | 1011.1 |
| 20260510035530 | 9 | 180 | 0.0 | 0.0 | 0.00 | 1.52 | 1.52 | 91 | 1011.1 |
| 20260510035001 | 9 | 184 | 0.0 | 0.0 | 0.00 | 1.52 | 1.52 | 91 | 1011.1 |
| 20260510034430 | 9 | 193 | 0.0 | 0.0 | 0.00 | 1.52 | 1.52 | 91 | 1011.1 |
| 20260510033900 | 9 | 193 | 0.0 | 0.0 | 0.00 | 1.52 | 1.52 | 91 | 1011.0 |
| 20260510033329 | 9 | 142 | 0.0 | 0.0 | 0.00 | 1.52 | 1.52 | 91 | 1011.0 |
| 20260510033029 | 9 | 142 | 0.0 | 0.0 | 0.00 | 1.52 | 1.52 | 91 | 1010.9 |
| 20260510032229 | 9 | 135 | 0.0 | 0.0 | 0.00 | 1.52 | 1.52 | 91 | 1011.1 |
| 20260510031659 | 9 | 128 | 0.0 | 0.0 | 0.00 | 1.52 | 1.52 | 91 | 1011.1 |
| 20260510031631 | 10 | 129 | 0.0 | 0.0 | 0.00 | 1.52 | 1.52 | 91 | 1011.2 |
| 20260510030556 | 10 | 129 | 0.0 | 0.0 | 0.00 | 1.52 | 1.52 | 91 | 1011.1 |
| 20260510030028 | 9 | 188 | 0.0 | 0.0 | 0.00 | 1.52 | 1.52 | 91 | 1011.0 |
| 20260510025457 | 9 | 161 | 0.0 | 0.0 | 0.00 | 1.52 | 1.52 | 91 | 1011.0 |
| 20260510024927 | 10 | 161 | 0.0 | 0.0 | 0.00 | 1.52 | 1.52 | 91 | 1011.2 |
| 20260510024356 | 10 | 161 | 0.0 | 0.0 | 0.00 | 1.52 | 1.52 | 91 | 1011.1 |
| 20260510023826 | 10 | 172 | 0.0 | 0.0 | 0.00 | 1.52 | 1.52 | 91 | 1011.0 |
| 20260510023255 | 10 | 159 | 0.0 | 0.0 | 0.00 | 1.52 | 1.52 | 91 | 1011.0 |
| 20260510022724 | 10 | 182 | 0.0 | 0.0 | 0.00 | 1.52 | 1.52 | 91 | 1011.1 |
| 20260510022154 | 10 | 166 | 0.0 | 0.0 | 0.00 | 1.52 | 1.52 | 91 | 1011.1 |
| 20260510021624 | 10 | 191 | 0.0 | 0.0 | 0.00 | 1.52 | 1.52 | 91 | 1011.0 |
| 20260510021053 | 10 | 178 | 0.0 | 0.0 | 0.00 | 1.52 | 1.52 | 91 | 1010.9 |
| 20260510020523 | 10 | 178 | 0.0 | 0.0 | 0.00 | 1.52 | 1.52 | 91 | 1011.0 |
| 20260510015951 | 10 | 180 | 0.0 | 0.0 | 0.00 | 1.52 | 1.52 | 91 | 1011.1 |
| 20260510015422 | 10 | 180 | 0.0 | 0.0 | 0.00 | 1.52 | 1.52 | 91 | 1010.9 |
| 20260510014853 | 10 | 178 | 0.0 | 0.0 | 0.00 | 1.52 | 1.52 | 91 | 1010.9 |
| 20260510014321 | 10 | 179 | 0.0 | 0.0 | 0.00 | 1.52 | 1.52 | 91 | 1010.7 |
| 20260510013749 | 10 | 179 | 0.0 | 0.0 | 0.00 | 1.52 | 1.52 | 91 | 1010.8 |
| 20260510013219 | 10 | 179 | 0.0 | 0.0 | 0.00 | 1.52 | 1.52 | 91 | 1010.7 |
| 20260510012649 | 10 | 178 | 0.0 | 0.0 | 0.00 | 1.52 | 1.52 | 91 | 1010.9 |
| 20260510012118 | 10 | 179 | 0.0 | 0.0 | 0.00 | 1.52 | 1.52 | 91 | 1010.8 |
| 20260510011548 | 10 | 179 | 0.0 | 0.0 | 0.00 | 1.52 | 1.52 | 91 | 1010.9 |
| 20260510011017 | 10 | 179 | 0.0 | 0.0 | 0.00 | 1.52 | 1.52 | 91 | 1010.9 |
| 20260510010447 | 10 | 169 | 0.0 | 0.0 | 0.00 | 1.52 | 1.52 | 91 | 1011.0 |
| 20260510005916 | 10 | 169 | 0.0 | 0.0 | 0.00 | 1.52 | 1.52 | 91 | 1010.8 |
| 20260510005346 | 10 | 169 | 0.0 | 0.0 | 0.00 | 1.52 | 1.52 | 91 | 1010.8 |
| 20260510004815 | 10 | 170 | 0.0 | 0.0 | 0.00 | 1.52 | 1.52 | 91 | 1010.8 |
| 20260510004246 | 10 | 169 | 0.0 | 0.0 | 0.00 | 1.52 | 1.52 | 91 | 1010.7 |
| 20260510003716 | 10 | 169 | 0.0 | 0.0 | 0.00 | 1.52 | 1.52 | 91 | 1010.5 |
| 20260510003146 | 10 | 170 | 0.0 | 0.0 | 0.00 | 1.52 | 1.52 | 91 | 1010.5 |
| 20260510002845 | 9 | 170 | 0.0 | 0.0 | 0.00 | 1.52 | 1.52 | 91 | 1010.3 |
| 20260510002045 | 10 | 170 | 0.0 | 0.0 | 0.00 | 1.52 | 1.52 | 91 | 1010.4 |
| 20260510001514 | 10 | 170 | 0.0 | 0.0 | 0.00 | 1.52 | 1.52 | 91 | 1010.2 |
| 20260510001215 | 10 | 170 | 0.0 | 0.0 | 0.00 | 1.52 | 1.52 | 91 | 1010.3 |
| 20260510000644 | 10 | 170 | 0.0 | 0.0 | 0.00 | 1.52 | 1.52 | 91 | 1010.4 |
| 20260509235842 | 10 | 170 | 0.0 | 0.0 | 0.00 | 1.52 | 1.52 | 91 | 1010.4 |
| 20260509235544 | 10 | 169 | 0.0 | 0.0 | 0.00 | 1.52 | 1.52 | 91 | 1010.4 |
| 20260509234740 | 10 | 169 | 0.0 | 0.0 | 0.00 | 1.52 | 1.52 | 91 | 1010.2 |
| 20260509234210 | 10 | 170 | 0.0 | 0.0 | 0.00 | 1.52 | 1.52 | 91 | 1010.0 |
| 20260509233640 | 10 | 170 | 0.0 | 0.0 | 0.00 | 1.52 | 1.52 | 91 | 1009.9 |
| 20260509233109 | 10 | 169 | 0.0 | 0.0 | 0.00 | 1.52 | 1.52 | 91 | 1009.7 |
| 20260509232537 | 10 | 170 | 0.0 | 0.0 | 0.00 | 1.52 | 1.52 | 91 | 1009.8 |
| 20260509232006 | 10 | 170 | 0.0 | 0.0 | 0.00 | 1.52 | 1.52 | 91 | 1009.8 |
| 20260509231436 | 10 | 169 | 0.0 | 0.0 | 0.00 | 1.52 | 1.52 | 91 | 1009.8 |
| 20260509230905 | 10 | 170 | 0.0 | 0.0 | 0.00 | 1.52 | 1.52 | 91 | 1009.7 |
| 20260509230333 | 11 | 149 | 0.0 | 0.0 | 0.00 | 1.52 | 1.52 | 91 | 1009.8 |
| 20260509225804 | 11 | 150 | 0.0 | 0.0 | 0.00 | 1.52 | 1.52 | 91 | 1009.9 |
| 20260509225232 | 11 | 188 | 0.0 | 0.0 | 0.00 | 1.52 | 1.52 | 91 | 1009.8 |
| 20260509224703 | 11 | 189 | 0.0 | 0.0 | 0.00 | 1.52 | 1.52 | 91 | 1009.9 |
| 20260509224132 | 11 | 190 | 0.0 | 0.0 | 0.00 | 1.52 | 1.52 | 91 | 1009.7 |
| 20260509223602 | 11 | 227 | 0.0 | 0.0 | 0.00 | 1.52 | 1.52 | 91 | 1010.0 |
| 20260509223534 | 11 | 226 | 0.0 | 0.0 | 0.00 | 1.52 | 1.52 | 91 | 1010.0 |
| 20260509222501 | 11 | 227 | 0.0 | 0.0 | 0.00 | 1.52 | 1.52 | 91 | 1010.1 |
| 20260509222202 | 11 | 227 | 0.0 | 0.0 | 0.00 | 1.52 | 1.52 | 91 | 1010.2 |
| 20260509221400 | 11 | 227 | 0.0 | 0.0 | 0.00 | 1.52 | 1.52 | 91 | 1010.2 |
| 20260509220830 | 11 | 199 | 0.0 | 0.0 | 0.00 | 1.52 | 1.52 | 91 | 1010.1 |
| 20260509220530 | 11 | 199 | 0.0 | 0.0 | 0.00 | 1.52 | 1.52 | 91 | 1010.1 |
| 20260509215729 | 11 | 199 | 0.0 | 0.0 | 0.00 | 1.52 | 1.52 | 91 | 1010.2 |
| 20260509215429 | 11 | 199 | 0.0 | 0.0 | 0.00 | 1.52 | 1.52 | 91 | 1010.2 |
| 20260509214628 | 11 | 177 | 0.0 | 0.0 | 0.00 | 1.52 | 1.52 | 91 | 1010.3 |
| 20260509214058 | 11 | 234 | 0.0 | 0.0 | 0.00 | 1.52 | 1.52 | 91 | 1010.2 |
| 20260509213528 | 11 | 170 | 0.0 | 0.0 | 0.00 | 1.52 | 1.52 | 91 | 1010.1 |
| 20260509212957 | 10 | 171 | 0.0 | 0.0 | 0.00 | 1.52 | 1.52 | 91 | 1010.1 |
| 20260509212427 | 10 | 171 | 0.0 | 0.0 | 0.00 | 1.52 | 1.52 | 91 | 1010.1 |
| 20260509211857 | 10 | 171 | 0.0 | 0.0 | 0.03 | 1.52 | 1.52 | 91 | 1010.1 |
| 20260509211326 | 10 | 171 | 0.0 | 0.0 | 0.03 | 1.52 | 1.52 | 91 | 1010.2 |
| 20260509210756 | 10 | 195 | 0.0 | 0.0 | 0.05 | 1.52 | 1.52 | 91 | 1010.3 |
| 20260509210226 | 10 | 193 | 0.0 | 0.0 | 0.05 | 1.52 | 1.52 | 91 | 1010.3 |
| 20260509205927 | 10 | 188 | 0.0 | 0.0 | 0.05 | 1.52 | 1.52 | 91 | 1010.3 |
| 20260509205053 | 10 | 185 | 0.0 | 0.0 | 0.10 | 1.52 | 1.52 | 91 | 1010.3 |
| 20260509204522 | 10 | 186 | 0.0 | 0.0 | 0.10 | 1.52 | 1.52 | 91 | 1010.4 |
| 20260509203950 | 10 | 186 | 0.0 | 0.0 | 0.13 | 1.52 | 1.52 | 91 | 1010.4 |
| 20260509203420 | 10 | 185 | 0.0 | 0.0 | 0.15 | 1.52 | 1.52 | 91 | 1010.5 |
| 20260509202850 | 10 | 185 | 0.0 | 0.0 | 0.18 | 1.52 | 1.52 | 91 | 1010.6 |
| 20260509202320 | 10 | 176 | 0.0 | 0.0 | 0.18 | 1.50 | 1.52 | 91 | 1010.7 |
| 20260509202252 | 10 | 174 | 0.0 | 0.0 | 0.18 | 1.50 | 1.50 | 91 | 1010.7 |
| 20260509201220 | 10 | 174 | 0.0 | 0.0 | 0.18 | 1.50 | 1.50 | 91 | 1010.6 |
| 20260509200649 | 10 | 174 | 0.0 | 0.0 | 0.18 | 1.47 | 1.47 | 91 | 1010.6 |
| 20260509200120 | 10 | 174 | 0.0 | 0.0 | 0.23 | 1.47 | 1.47 | 91 | 1010.7 |
| 20260509195549 | 10 | 174 | 0.0 | 0.0 | 0.25 | 1.45 | 1.45 | 91 | 1010.7 |
| 20260509195019 | 10 | 182 | 0.0 | 0.0 | 0.25 | 1.42 | 1.42 | 91 | 1010.7 |
| 20260509194448 | 10 | 177 | 0.0 | 1.6 | 0.28 | 1.42 | 1.42 | 91 | 1010.9 |
| 20260509193918 | 10 | 168 | 0.0 | 0.0 | 0.25 | 1.40 | 1.40 | 91 | 1011.1 |
| 20260509193347 | 10 | 168 | 0.0 | 0.0 | 0.25 | 1.37 | 1.37 | 91 | 1011.2 |
| 20260509192743 | 10 | 168 | 0.0 | 0.0 | 0.25 | 1.35 | 1.35 | 91 | 1011.3 |
| 20260509192214 | 10 | 195 | 0.0 | 0.0 | 0.23 | 1.32 | 1.32 | 91 | 1011.3 |
| 20260509191915 | 10 | 195 | 0.0 | 0.0 | 0.23 | 1.32 | 1.32 | 91 | 1011.3 |
| 20260509191114 | 10 | 233 | 0.0 | 0.0 | 0.23 | 1.30 | 1.32 | 91 | 1011.4 |
| 20260509190543 | 10 | 194 | 0.0 | 8.0 | 0.23 | 1.30 | 1.30 | 91 | 1011.4 |
| 20260509190013 | 10 | 209 | 0.0 | 0.0 | 0.15 | 1.22 | 1.22 | 91 | 1011.3 |
| 20260509185443 | 10 | 170 | 0.0 | 0.0 | 0.13 | 1.17 | 1.19 | 91 | 1011.4 |
| 20260509184912 | 10 | 183 | 0.0 | 0.0 | 0.13 | 1.17 | 1.17 | 91 | 1011.4 |
| 20260509184614 | 10 | 182 | 0.0 | 0.0 | 0.13 | 1.14 | 1.14 | 91 | 1011.5 |
| 20260509184043 | 10 | 195 | 0.0 | 0.0 | 0.15 | 1.14 | 1.14 | 91 | 1011.5 |
| 20260509183241 | 10 | 182 | 0.0 | 0.0 | 0.13 | 1.12 | 1.12 | 91 | 1011.6 |
| 20260509182943 | 10 | 200 | 0.0 | 6.4 | 0.13 | 1.09 | 1.09 | 91 | 1011.6 |
| 20260509182140 | 10 | 184 | 0.0 | 6.4 | 0.15 | 1.09 | 1.09 | 91 | 1011.6 |
| 20260509181609 | 10 | 192 | 1.6 | 11.3 | 0.15 | 1.09 | 1.09 | 91 | 1011.6 |
| 20260509181309 | 10 | 173 | 1.6 | 11.3 | 0.13 | 1.07 | 1.07 | 91 | 1011.5 |
| 20260509180507 | 10 | 165 | 1.6 | 6.4 | 0.15 | 1.07 | 1.07 | 91 | 1011.7 |
| 20260509180205 | 10 | 171 | 1.6 | 8.0 | 0.13 | 1.04 | 1.07 | 91 | 1011.6 |
| 20260509175404 | 10 | 223 | 1.6 | 3.2 | 0.15 | 1.04 | 1.04 | 91 | 1011.4 |
| 20260509174833 | 10 | 178 | 1.6 | 9.7 | 0.13 | 1.02 | 1.02 | 91 | 1011.4 |
| 20260509174303 | 10 | 130 | 1.6 | 9.7 | 0.13 | 1.02 | 1.02 | 91 | 1011.4 |
| 20260509173733 | 10 | 180 | 1.6 | 4.8 | 0.13 | 0.99 | 0.99 | 91 | 1011.2 |
| 20260509173203 | 10 | 182 | 0.0 | 3.2 | 0.13 | 0.99 | 0.99 | 91 | 1011.2 |
| 20260509172633 | 9 | 184 | 1.6 | 4.8 | 0.10 | 0.97 | 0.97 | 91 | 1011.1 |
| 20260509172102 | 9 | 176 | 1.6 | 4.8 | 0.08 | 0.94 | 0.94 | 91 | 1011.3 |
| 20260509171802 | 10 | 138 | 0.0 | 4.8 | 0.10 | 0.94 | 0.94 | 91 | 1011.3 |
| 20260509171000 | 9 | 169 | 0.0 | 4.8 | 0.10 | 0.94 | 0.94 | 91 | 1011.2 |
| 20260509170429 | 9 | 160 | 0.0 | 0.0 | 0.08 | 0.91 | 0.91 | 91 | 1011.1 |
| 20260509165859 | 9 | 157 | 0.0 | 1.6 | 0.08 | 0.91 | 0.91 | 91 | 1011.2 |
| 20260509165328 | 9 | 157 | 1.6 | 4.8 | 0.08 | 0.89 | 0.89 | 91 | 1011.2 |
| 20260509164758 | 9 | 165 | 0.0 | 4.8 | 0.08 | 0.89 | 0.89 | 91 | 1011.3 |
| 20260509164228 | 9 | 177 | 0.0 | 0.0 | 0.05 | 0.86 | 0.89 | 91 | 1011.2 |
| 20260509163658 | 9 | 174 | 0.0 | 0.0 | 0.08 | 0.86 | 0.86 | 91 | 1011.2 |
| 20260509163127 | 9 | 174 | 0.0 | 3.2 | 0.10 | 0.86 | 0.86 | 91 | 1011.3 |
| 20260509162557 | 9 | 180 | 0.0 | 0.0 | 0.13 | 0.86 | 0.86 | 91 | 1011.3 |
| 20260509162528 | 9 | 180 | 0.0 | 0.0 | 0.15 | 0.86 | 0.86 | 91 | 1011.3 |
| 20260509161456 | 8 | 147 | 0.0 | 0.0 | 0.13 | 0.84 | 0.84 | 91 | 1011.4 |
| 20260509160926 | 8 | 181 | 0.0 | 0.0 | 0.15 | 0.84 | 0.84 | 91 | 1011.5 |
| 20260509160356 | 8 | 205 | 0.0 | 0.0 | 0.15 | 0.84 | 0.84 | 91 | 1011.5 |
| 20260509160300 | 8 | 119 | 0.0 | 0.0 | 0.15 | 0.81 | 0.81 | 91 | 1011.7 |
| 20260509155903 | 8 | 170 | 0.0 | 0.0 | 0.15 | 0.84 | 0.84 | 91 | 1011.8 |
| 20260509154652 | 8 | 190 | 0.0 | 0.0 | 0.18 | 0.81 | 0.81 | 91 | 1011.8 |
| 20260509154122 | 8 | 190 | 0.0 | 0.0 | 0.18 | 0.81 | 0.81 | 91 | 1012.3 |
| 20260509153822 | 8 | 189 | 0.0 | 0.0 | 0.18 | 0.79 | 0.79 | 91 | 1012.3 |
| 20260509153021 | 8 | 114 | 0.0 | 0.0 | 0.18 | 0.76 | 0.76 | 91 | 1012.1 |
| 20260509152451 | 8 | 113 | 0.0 | 0.0 | 0.15 | 0.74 | 0.74 | 91 | 1012.2 |
| 20260509151920 | 8 | 113 | 0.0 | 0.0 | 0.15 | 0.71 | 0.71 | 91 | 1012.2 |
| 20260509151351 | 8 | 113 | 0.0 | 0.0 | 0.13 | 0.69 | 0.69 | 91 | 1012.4 |
| 20260509150821 | 8 | 113 | 0.0 | 0.0 | 0.13 | 0.69 | 0.69 | 91 | 1012.3 |
| 20260509150249 | 8 | 113 | 0.0 | 0.0 | 0.15 | 0.69 | 0.69 | 91 | 1012.2 |
| 20260509145719 | 8 | 113 | 0.0 | 0.0 | 0.13 | 0.66 | 0.66 | 91 | 1012.2 |
| 20260509145149 | 8 | 113 | 0.0 | 0.0 | 0.15 | 0.66 | 0.66 | 91 | 1012.2 |
| 20260509144618 | 8 | 113 | 0.0 | 0.0 | 0.13 | 0.64 | 0.64 | 91 | 1012.2 |
| 20260509144048 | 8 | 113 | 0.0 | 0.0 | 0.15 | 0.64 | 0.64 | 91 | 1012.1 |
| 20260509143518 | 8 | 113 | 0.0 | 0.0 | 0.13 | 0.61 | 0.61 | 91 | 1012.2 |
| 20260509142947 | 8 | 113 | 0.0 | 0.0 | 0.13 | 0.58 | 0.58 | 91 | 1012.2 |
| 20260509142649 | 8 | 115 | 0.0 | 0.0 | 0.10 | 0.56 | 0.58 | 91 | 1012.2 |
| 20260509141847 | 8 | 105 | 0.0 | 0.0 | 0.10 | 0.56 | 0.56 | 91 | 1012.1 |
| 20260509141318 | 8 | 166 | 0.0 | 0.0 | 0.13 | 0.56 | 0.56 | 91 | 1012.1 |
| 20260509140747 | 8 | 98 | 0.0 | 0.0 | 0.13 | 0.56 | 0.56 | 91 | 1012.1 |
| 20260509140221 | 8 | 180 | 0.0 | 0.0 | 0.10 | 0.53 | 0.53 | 91 | 1011.9 |
| 20260509135919 | 7 | 95 | 0.0 | 0.0 | 0.13 | 0.53 | 0.53 | 91 | 1011.9 |
| 20260509135044 | 7 | 91 | 0.0 | 0.0 | 0.10 | 0.51 | 0.51 | 91 | 1011.9 |
| 20260509134514 | 7 | 143 | 0.0 | 0.0 | 0.10 | 0.51 | 0.51 | 91 | 1012.1 |
| 20260509133944 | 7 | 157 | 0.0 | 0.0 | 0.08 | 0.48 | 0.48 | 91 | 1012.1 |
| 20260509133414 | 7 | 135 | 0.0 | 0.0 | 0.08 | 0.48 | 0.48 | 91 | 1012.1 |
| 20260509132843 | 7 | 158 | 0.0 | 0.0 | 0.05 | 0.46 | 0.46 | 91 | 1012.3 |
| 20260509132312 | 7 | 158 | 0.0 | 0.0 | 0.05 | 0.46 | 0.46 | 91 | 1012.1 |